Location: Devargunta
(16.7631°N, 80.9077°E)
Time: 16:11:11
(UTC+00:00)

Cosmos 540 Rocket - Pass Details

Date: 19 January 2021
Orbit: 739 x 754 km, 74.1° (Epoch: 27 February)

Event Time Altitude Azimuth Distance (km) Brightness Sun altitude
Rises 23:45:09 0° 195° (SSW) 3,160 6.7 -19.9°
Reaches altitude 10° 23:47:30 10° 196° (SSW) 2,238 5.9 -19.3°
Maximum altitude 23:52:34 82° 283° (WNW) 749 3.3 -18.2°
Drops below altitude 10° 23:57:39 10° 11° (N) 2,246 5.9 -17.0°
Sets 00:00:00 0° 12° (NNE) 3,172 6.7 -16.5°
